Terminal Aerodrome Forecast
Issued by NWS

Home | Current Version | Previous Version | Text Only | Print | Product List | Glossary On
Versions: 1 2 3 4 5 6 7 8 9 10 11 12 13 14 15 16 17 18 19 20
000
FTUS43 KAPX 301700
TAFPLN
TAF
KPLN 301720Z 3018/0118 02007KT P6SM OVC011
     FM302000 05006KT P6SM BKN025
     FM010500 09003KT 4SM BR OVC010
     FM011500 11005KT P6SM OVC020=

USA.gov is the U.S. government's official web portal to all federal, state and local government web resources and services.